Location: Frizzleburg
(41.0764°N, 80.4548°W)
Time: 05:20:55
(UTC+00:00)

CZ-4B R/B - Pass Details

Date: 17 November 2019
Orbit: 498 x 646 km, 97.7° (Epoch: 12 December)

Event Time Altitude Azimuth Distance (km) Brightness Sun altitude
Rises 10:00:38 0° 11° (NNE) 2,964 7.6 -24.6°
Reaches altitude 10° 10:02:51 10° 12° (NNE) 2,054 6.8 -24.2°
Maximum altitude 10:07:22 87° 284° (WNW) 652 4.0 -23.3°
Drops below altitude 10° 10:11:48 10° 195° (SSW) 2,020 6.6 -22.5°
Sets 10:13:59 0° 195° (SSW) 2,911 7.4 -22.1°
